Gadsden, AL

12:15 PM CDT on July 21, 2019 (GMT -0500)
Gadsden Municipal

Weather History for KGAD - May, 2019

Change the Weather History Date:

Saturday, May 11, 2019

  Actual Average Record
Temperature  
Mean Temperature 73 °F -  
Max Temperature 80 °F 77 °F 90 °F (1933)
Min Temperature 66 °F 53 °F 39 °F (1997)
Cooling Degree Days 8    
Growing Degree Days 23 (Base 50)    
Moisture  
Dew Point 72 °F    
Average Humidity 86    
Maximum Humidity 100    
Minimum Humidity 71    
Precipitation  
Precipitation 0.40 in - - ()
Sea Level Pressure  
Sea Level Pressure 29.93 in    
Wind  
Wind Speed 3 mph (SW)    
Max Wind Speed 13 mph    
Max Gust Speed 20 mph    
Visibility 6 miles    
Events Fog , Rain , Thunderstorm    
Averages and records for this station are not official NWS values.
T = Trace of Precipitation, MM = Missing Value Source: NWS Daily Summary

Daily Weather History Graph

Daily Weather History Graph

Search for Another Location

Airport or City:

Astronomy

May. 11, 2019 Rise Set
Actual Time 5:46 AM CDT 7:35 PM CDT
Civil Twilight 5:18 AM CDT 8:03 PM CDT
Nautical Twilight 4:45 AM CDT 8:36 PM CDT
Astronomical Twilight 4:10 AM CDT 9:11 PM CDT
Moon 11:54 AM CDT (5/11) 1:15 AM CDT (5/11)
Length of Visible Light 14h 44m
Length of Day
13h 49m
Waxing Crescent, 46% of the Moon is Illuminated
May 11
Waxing Crescent
May 11
First Quarter
May 18
Full
May 26
Last Quarter
Jun 3
New

Hourly Weather History & Observations

Time (CDT) Temp. Heat Index Dew Point Humidity Pressure Visibility Wind Dir Wind Speed Gust Speed Precip Events Conditions
12:05 AM 69.8 °F - - N/A% 30.01 in 2.0 mi Calm Calm - N/A   Mostly Cloudy
12:56 AM 68.0 °F - - N/A% 29.99 in 4.0 mi WSW 3.5 mph - N/A   Haze
1:38 AM 68.0 °F - - N/A% 29.99 in 5.0 mi WNW 3.5 mph - N/A   Haze
1:56 AM 68.0 °F - - N/A% 29.98 in 6.0 mi Calm Calm - N/A   Haze
2:56 AM 68.0 °F - - N/A% 29.96 in 5.0 mi Calm Calm - N/A   Haze
3:16 AM 66.2 °F - - N/A% 29.96 in 2.5 mi Calm Calm - N/A   Mostly Cloudy
3:32 AM 66.2 °F - - N/A% 29.95 in 1.0 mi Calm Calm - N/A   Scattered Clouds
3:42 AM 66.2 °F - - N/A% 29.95 in 2.0 mi Calm Calm - N/A   Scattered Clouds
3:48 AM 66.2 °F - - N/A% 29.95 in 1.0 mi Calm Calm - N/A   Partly Cloudy
3:56 AM 66.9 °F - - N/A% 29.95 in 1.0 mi Calm Calm - N/A   Partly Cloudy
4:04 AM 66.2 °F - - N/A% 29.95 in 0.8 mi Calm Calm - N/A   Partly Cloudy
4:27 AM 66.2 °F - - N/A% 29.94 in 0.5 mi Calm Calm - N/A Fog Fog
4:56 AM 66.0 °F - - N/A% 29.94 in 0.2 mi Calm Calm - N/A Fog Fog
5:09 AM 66.2 °F - - N/A% 29.94 in 0.8 mi Calm Calm - N/A   Partly Cloudy
5:24 AM 66.2 °F - - N/A% 29.94 in 1.2 mi Calm Calm - N/A   Mostly Cloudy
5:29 AM 66.2 °F - - N/A% 29.94 in 3.0 mi Calm Calm - N/A   Scattered Clouds
5:56 AM 66.0 °F - - N/A% 29.95 in 5.0 mi Calm Calm - 0.00 in Rain Light Rain
6:29 AM 66.2 °F - - N/A% 29.95 in 2.5 mi Calm Calm - 0.00 in   Mostly Cloudy
6:38 AM 66.2 °F - - N/A% 29.95 in 1.0 mi Calm Calm - 0.00 in   Mostly Cloudy
6:45 AM 66.2 °F - - N/A% 29.96 in 1.2 mi Calm Calm - 0.00 in   Mostly Cloudy
6:53 AM 66.2 °F - - N/A% 29.95 in 1.8 mi Calm Calm - 0.00 in   Mostly Cloudy
6:56 AM 66.9 °F - - N/A% 29.96 in 1.8 mi Calm Calm - 0.00 in   Mostly Cloudy
7:05 AM 66.2 °F - - N/A% 29.96 in 3.0 mi Calm Calm - N/A   Mostly Cloudy
7:18 AM 66.2 °F - - N/A% 29.96 in 5.0 mi Calm Calm - N/A   Haze
7:56 AM 68.0 °F - - N/A% 29.97 in 8.0 mi Calm Calm - N/A   Mostly Cloudy
8:24 AM 68.0 °F - - N/A% 29.97 in 4.0 mi Calm Calm - 0.01 in Rain Light Rain
8:45 AM 69.8 °F - - N/A% 29.97 in 5.0 mi South 3.5 mph - 0.03 in Rain , Thunderstorm Light Rain
8:56 AM 69.1 °F - - N/A% 29.97 in 6.0 mi Calm Calm - 0.04 in Rain , Thunderstorm Rain
9:00 AM 69.8 °F - - N/A% 29.97 in 7.0 mi Calm Calm - 0.01 in Rain , Thunderstorm Light Rain
9:07 AM 69.8 °F - - N/A% 29.97 in 10.0 mi Calm Calm - 0.01 in Rain , Thunderstorm Light Rain
9:25 AM 71.6 °F - - N/A% 29.96 in 10.0 mi Variable 3.5 mph - 0.01 in Rain Light Rain
9:35 AM 69.8 °F - - N/A% 29.97 in 10.0 mi Variable 5.8 mph - 0.01 in   Overcast
9:56 AM 71.1 °F - - N/A% 29.97 in 10.0 mi SSW 4.6 mph - 0.01 in   Overcast
10:56 AM 73.9 °F - 73.9 °F 100% 29.96 in 10.0 mi SSW 8.1 mph - N/A   Overcast
11:10 AM 73.4 °F - 73.4 °F 100% 29.96 in 10.0 mi SSW 8.1 mph - N/A   Overcast
11:45 AM 75.2 °F - 73.4 °F 94% 29.95 in 10.0 mi South 10.4 mph - N/A   Mostly Cloudy
11:52 AM 75.2 °F - 73.4 °F 94% 29.95 in 10.0 mi SSW 8.1 mph - N/A   Mostly Cloudy
11:56 AM 75.9 °F - 73.9 °F 94% 29.94 in 10.0 mi SSW 5.8 mph - N/A   Mostly Cloudy
12:42 PM 77.0 °F - 71.6 °F 83% 29.92 in 10.0 mi South 9.2 mph - N/A   Scattered Clouds
12:56 PM 78.1 °F - 73.0 °F 84% 29.91 in 10.0 mi SSW 11.5 mph - N/A   Partly Cloudy
1:11 PM 78.8 °F - 71.6 °F 78% 29.90 in 10.0 mi SSW 9.2 mph - N/A   Mostly Cloudy
1:19 PM 78.8 °F - 71.6 °F 78% 29.90 in 10.0 mi SSW 10.4 mph - N/A   Mostly Cloudy
1:30 PM 78.8 °F - 71.6 °F 78% 29.90 in 10.0 mi SW 6.9 mph - N/A   Mostly Cloudy
1:41 PM 78.8 °F - 71.6 °F 78% 29.89 in 10.0 mi SSW 11.5 mph 19.6 mph N/A   Mostly Cloudy
2:56 PM 80.1 °F 83.6 °F 71.1 °F 74% 29.85 in 10.0 mi South 8.1 mph - N/A   Mostly Cloudy
3:56 PM 80.1 °F 83.2 °F 70.0 °F 71% 29.81 in 1.8 mi SSW 6.9 mph - N/A   Haze
4:07 PM 78.8 °F - 69.8 °F 74% 29.81 in 10.0 mi South 6.9 mph - N/A   Overcast
4:56 PM 73.0 °F - 73.0 °F 100% 29.84 in 10.0 mi West 5.8 mph - 0.04 in Rain Light Rain
6:53 PM 71.6 °F - - N/A% 29.86 in 10.0 mi SW 4.6 mph - 0.03 in Rain , Thunderstorm Rain
6:56 PM 72.0 °F - - N/A% 29.86 in 10.0 mi WSW 5.8 mph - 0.03 in Rain , Thunderstorm Rain
7:21 PM 69.8 °F - 69.8 °F 100% 29.87 in 9.0 mi SW 10.4 mph - 0.09 in Rain , Thunderstorm Rain
7:43 PM 69.8 °F - - N/A% 29.88 in 8.0 mi SW 4.6 mph - 0.14 in Rain , Thunderstorm Thunderstorms and Rain
7:56 PM 69.1 °F - - N/A% 29.89 in 10.0 mi SW 9.2 mph - 0.18 in Rain , Thunderstorm Rain
8:08 PM 69.8 °F - - N/A% 29.89 in 9.0 mi SW 9.2 mph - 0.05 in Rain , Thunderstorm Heavy Rain
8:12 PM 69.8 °F - - N/A% 29.88 in 9.0 mi SW 12.7 mph 17.3 mph 0.06 in Rain , Thunderstorm Rain
8:18 PM 69.8 °F - - N/A% 29.88 in 10.0 mi SW 8.1 mph 17.3 mph 0.07 in Rain , Thunderstorm Rain
8:22 PM 68.0 °F - - N/A% 29.88 in 10.0 mi Variable 6.9 mph - 0.07 in Rain , Thunderstorm Light Rain
8:37 PM 68.0 °F - - N/A% 29.87 in 10.0 mi SW 6.9 mph - 0.08 in Rain Light Rain
8:56 PM 68.0 °F - - N/A% 29.86 in 10.0 mi SW 3.5 mph - 0.09 in Rain Light Rain
9:56 PM 66.9 °F - - N/A% 29.86 in 10.0 mi SW 3.5 mph - 0.00 in   Scattered Clouds
10:56 PM 66.9 °F - - N/A% 29.86 in 10.0 mi SW 5.8 mph - 0.00 in Rain Light Rain
11:56 PM 66.9 °F - - N/A% 29.86 in 10.0 mi SSW 4.6 mph - 0.01 in Rain Light Rain